{"data":{"norad_id":61636,"intl_designator":"2024-191R","name":"STARLINK-32405","alt_names":[],"object_type":"PAYLOAD","status":"ACTIVE","operator":null,"country":"US","launch_date":"2024-10-23","launch_site_code":"AFETR","launch_vehicle":null,"mission":null,"orbit_class":"UNKNOWN","rcs_meters":null,"size_class":null,"mass_kg":null,"dimensions":null,"purposes":["comms"],"wikipedia_slug":null,"has_3d_model":false,"image_url":null,"decayed_at":null,"tle_current":{"epoch":"2026-05-25T03:17:13.860672Z","epoch_age_seconds":63172,"freshness":"FRESH","line1":"1 61636U 24191R   26145.13696598  .00001120  00000+0  50245-4 0  9997","line2":"2 61636  43.0045  86.6145 0001417 274.3866  85.6824 15.27573311 89183","mean_motion":15.27573311,"eccentricity":0.0001417,"inclination_deg":43.0045,"raan_deg":86.6145,"arg_perigee_deg":274.3866,"mean_anomaly_deg":85.6824,"bstar":5.0245e-5,"rev_number":8918,"period_min":94.267161492716,"perigee_km":482.09689247713,"apogee_km":484.04135829306,"semimajor_km":6861.2061253851,"source":"CELESTRAK","updated_at":"2026-05-25T13:38:19.409743Z"}}}